TimePST,TemperatureF,Dew PointF,Humidity,Sea Level PressureIn,VisibilityMPH,Wind Direction,Wind SpeedMPH,Gust SpeedMPH,PrecipitationIn,Events,Conditions,WindDirDegrees,DateUTC
12:07 AM,30.2,30.2,100,30.10,10.0,NE,6.9,-,N/A,Rain,Light Freezing Rain,40,2013-01-25 08:07:00
12:32 AM,30.2,30.2,100,30.09,9.0,NE,6.9,-,N/A,Rain,Light Freezing Rain,40,2013-01-25 08:32:00
12:44 AM,30.2,30.2,100,30.09,10.0,NE,6.9,-,N/A,,Overcast,50,2013-01-25 08:44:00
12:54 AM,30.2,30.2,100,30.08,10.0,NE,6.9,-,N/A,,Overcast,40,2013-01-25 08:54:00
12:58 AM,30.2,30.2,100,30.16,10.0,NE,6.9,-,0.00,,Overcast,50,2013-01-25 08:58:00
1:03 AM,30.2,30.2,100,30.08,10.0,NE,8.1,-,N/A,,Overcast,50,2013-01-25 09:03:00
1:07 AM,30.2,30.2,100,30.08,9.0,NE,8.1,-,N/A,Rain,Light Freezing Rain,50,2013-01-25 09:07:00
1:16 AM,30.2,30.2,100,30.09,7.0,NE,4.6,-,N/A,Rain,Light Freezing Rain,50,2013-01-25 09:16:00
1:17 AM,30.2,30.2,100,30.09,7.0,NE,5.8,-,N/A,,Overcast,40,2013-01-25 09:17:00
1:18 AM,30.2,30.2,100,30.09,6.0,NE,5.8,-,N/A,Rain,Light Freezing Rain,40,2013-01-25 09:18:00
1:23 AM,30.2,30.2,100,30.09,6.0,NE,5.8,-,N/A,Rain,Light Freezing Rain,40,2013-01-25 09:23:00
1:28 AM,30.2,30.2,100,30.08,6.0,NE,6.9,-,N/A,Rain,Light Freezing Rain,40,2013-01-25 09:28:00
1:35 AM,30.2,30.2,100,30.08,6.0,NE,6.9,-,N/A,Rain,Light Freezing Rain,40,2013-01-25 09:35:00
1:50 AM,30.2,30.2,100,30.08,6.0,NNE,5.8,-,N/A,Rain,Light Freezing Rain,30,2013-01-25 09:50:00
1:55 AM,32.0,32.0,100,30.08,6.0,NNE,4.6,-,N/A,Rain,Light Freezing Rain,30,2013-01-25 09:55:00
1:58 AM,30.4,30.4,100,30.16,6.0,NNE,4.6,-,0.00,Rain,Light Freezing Rain,20,2013-01-25 09:58:00
2:03 AM,32.0,32.0,100,30.08,6.0,North,4.6,-,N/A,Rain,Light Freezing Rain,10,2013-01-25 10:03:00
2:08 AM,32.0,32.0,100,30.08,7.0,North,3.5,-,N/A,Rain,Light Freezing Rain,10,2013-01-25 10:08:00
2:33 AM,32.0,32.0,100,30.07,6.0,NE,5.8,-,N/A,Rain,Light Freezing Rain,40,2013-01-25 10:33:00
2:48 AM,32.0,32.0,100,30.06,5.0,NE,5.8,-,N/A,Rain,Light Freezing Rain,40,2013-01-25 10:48:00
2:58 AM,31.1,31.1,100,30.14,6.0,NE,5.8,-,0.00,Rain,Light Freezing Rain,50,2013-01-25 10:58:00
3:13 AM,32.0,32.0,100,30.06,5.0,ENE,4.6,-,N/A,Rain,Light Freezing Rain,70,2013-01-25 11:13:00
3:23 AM,32.0,32.0,100,30.05,6.0,NE,4.6,-,N/A,Rain,Light Freezing Rain,50,2013-01-25 11:23:00
3:38 AM,32.0,32.0,100,30.06,7.0,NNE,3.5,-,N/A,,Overcast,30,2013-01-25 11:38:00
3:53 AM,32.0,32.0,100,30.05,9.0,North,2.3,-,N/A,,Overcast,350,2013-01-25 11:53:00
3:58 AM,31.6,31.6,100,30.13,9.0,North,2.3,-,0.00,,Overcast,350,2013-01-25 11:58:00
4:00 AM,32.0,32.0,100,30.05,9.0,NNW,2.3,-,N/A,,Overcast,340,2013-01-25 12:00:00
4:26 AM,32.0,32.0,100,30.05,9.0,North,3.5,-,N/A,Rain,Light Freezing Rain,10,2013-01-25 12:26:00
4:29 AM,32.0,32.0,100,30.05,9.0,North,3.5,-,N/A,,Overcast,10,2013-01-25 12:29:00
4:58 AM,31.8,31.8,100,30.13,9.0,NE,3.5,-,0.00,,Overcast,50,2013-01-25 12:58:00
5:02 AM,32.0,32.0,100,30.05,8.0,ENE,3.5,-,N/A,,Overcast,60,2013-01-25 13:02:00
5:18 AM,32.0,32.0,100,30.04,8.0,NE,3.5,-,N/A,,Overcast,50,2013-01-25 13:18:00
5:23 AM,32.0,32.0,100,30.05,8.0,NE,3.5,-,N/A,,Overcast,50,2013-01-25 13:23:00
5:58 AM,31.8,31.8,100,30.12,9.0,ENE,2.3,-,0.00,,Overcast,60,2013-01-25 13:58:00
6:29 AM,32.0,32.0,100,30.04,10.0,East,4.6,-,N/A,,Overcast,90,2013-01-25 14:29:00
6:39 AM,32.0,32.0,100,30.04,10.0,East,3.5,-,N/A,,Overcast,80,2013-01-25 14:39:00
6:43 AM,32.0,32.0,100,30.04,10.0,East,3.5,-,N/A,,Overcast,80,2013-01-25 14:43:00
6:52 AM,32.0,32.0,100,30.04,10.0,East,2.3,-,N/A,,Overcast,100,2013-01-25 14:52:00
6:58 AM,32.5,32.5,100,30.12,10.0,East,2.3,-,0.00,,Overcast,100,2013-01-25 14:58:00
7:58 AM,34.3,34.3,100,30.12,10.0,Calm,Calm,-,N/A,,Overcast,0,2013-01-25 15:58:00
8:58 AM,34.5,34.5,100,30.12,10.0,South,1.2,-,N/A,,Overcast,190,2013-01-25 16:58:00
9:36 AM,35.6,35.6,100,30.05,10.0,SE,1.2,-,N/A,,Overcast,130,2013-01-25 17:36:00
9:38 AM,35.6,35.6,100,30.04,10.0,East,1.2,-,N/A,,Overcast,100,2013-01-25 17:38:00
9:39 AM,35.6,35.6,100,30.04,10.0,Calm,Calm,-,N/A,,Overcast,0,2013-01-25 17:39:00
9:46 AM,35.6,35.6,100,30.04,10.0,SE,2.3,-,N/A,,Overcast,130,2013-01-25 17:46:00
9:58 AM,34.9,34.9,100,30.12,10.0,East,2.3,-,N/A,,Overcast,80,2013-01-25 17:58:00
10:05 AM,35.6,35.6,100,30.04,10.0,ENE,3.5,-,N/A,,Overcast,70,2013-01-25 18:05:00
10:35 AM,35.6,35.6,100,30.03,10.0,SE,5.8,-,N/A,,Overcast,130,2013-01-25 18:35:00
10:38 AM,35.6,35.6,100,30.03,10.0,SE,6.9,-,N/A,,Overcast,130,2013-01-25 18:38:00
10:54 AM,35.6,35.6,100,30.03,10.0,SSE,8.1,-,N/A,,Overcast,150,2013-01-25 18:54:00
10:58 AM,35.6,35.6,100,30.11,10.0,SSE,6.9,-,0.06,,Overcast,150,2013-01-25 18:58:00
11:58 AM,37.0,37.0,100,30.08,10.0,SSW,5.8,-,0.05,,Overcast,210,2013-01-25 19:58:00
12:21 PM,37.4,37.4,100,29.99,10.0,South,6.9,-,N/A,,Overcast,170,2013-01-25 20:21:00
12:35 PM,37.4,37.4,100,29.98,10.0,South,8.1,-,N/A,,Overcast,170,2013-01-25 20:35:00
12:55 PM,37.4,37.4,100,29.97,10.0,SSW,8.1,-,N/A,,Overcast,200,2013-01-25 20:55:00
12:58 PM,37.6,37.6,100,30.04,10.0,South,6.9,-,0.03,,Overcast,190,2013-01-25 20:58:00
1:13 PM,37.4,37.4,100,29.98,10.0,SSW,6.9,-,N/A,,Overcast,200,2013-01-25 21:13:00
1:18 PM,37.4,37.4,100,29.98,10.0,SSW,6.9,-,N/A,,Overcast,200,2013-01-25 21:18:00
1:33 PM,37.4,37.4,100,29.97,10.0,South,5.8,-,N/A,,Overcast,170,2013-01-25 21:33:00
1:58 PM,37.6,37.4,99,30.04,10.0,SW,4.6,-,N/A,,Overcast,220,2013-01-25 21:58:00
2:07 PM,35.6,35.6,100,29.96,10.0,SW,4.6,-,N/A,,Overcast,220,2013-01-25 22:07:00
2:11 PM,35.6,35.6,100,29.97,10.0,SSW,4.6,-,N/A,,Overcast,210,2013-01-25 22:11:00
2:31 PM,37.4,37.4,100,29.96,6.0,South,3.5,-,N/A,Rain,Light Rain,190,2013-01-25 22:31:00
2:36 PM,37.4,37.4,100,29.96,4.0,SSW,3.5,-,N/A,Rain,Light Rain,200,2013-01-25 22:36:00
2:41 PM,37.4,37.4,100,29.96,4.0,Calm,Calm,-,N/A,,Overcast,0,2013-01-25 22:41:00
2:51 PM,35.6,35.6,100,29.95,4.0,South,2.3,-,N/A,,Overcast,190,2013-01-25 22:51:00
2:58 PM,36.5,36.5,100,30.03,5.0,South,3.5,-,0.00,,Overcast,190,2013-01-25 22:58:00
3:01 PM,35.6,35.6,100,29.95,6.0,South,5.8,-,N/A,Rain,Light Rain,190,2013-01-25 23:01:00
3:18 PM,35.6,35.6,100,29.95,4.0,South,5.8,-,N/A,,Overcast,190,2013-01-25 23:18:00
3:26 PM,35.6,35.6,100,29.95,3.0,SSW,4.6,-,N/A,Rain,Light Rain,200,2013-01-25 23:26:00
3:31 PM,35.6,35.6,100,29.95,2.0,South,4.6,-,N/A,Rain,Light Rain,190,2013-01-25 23:31:00
3:45 PM,35.6,35.6,100,29.95,2.0,SSW,3.5,-,N/A,,Overcast,210,2013-01-25 23:45:00
3:58 PM,35.4,35.4,100,30.01,2.5,South,2.3,-,0.00,,Overcast,190,2013-01-25 23:58:00
4:03 PM,35.6,35.6,100,29.94,1.0,South,3.5,-,N/A,,Mist,190,2013-01-26 00:03:00
4:08 PM,35.6,35.6,100,29.94,0.5,South,3.5,-,N/A,Fog,Fog,190,2013-01-26 00:08:00
4:13 PM,35.6,35.6,100,29.94,0.2,SSW,3.5,-,N/A,Fog,Fog,200,2013-01-26 00:13:00
4:18 PM,35.6,35.6,100,29.94,0.2,South,4.6,-,N/A,Fog-Rain,Light Rain,190,2013-01-26 00:18:00
4:23 PM,35.6,35.6,100,29.94,0.2,SSW,3.5,-,N/A,Fog-Rain,Light Rain,210,2013-01-26 00:23:00
4:43 PM,35.6,35.6,100,29.94,0.5,SSW,5.8,-,N/A,Fog-Rain,Light Rain,210,2013-01-26 00:43:00
4:53 PM,35.6,35.6,100,29.93,0.5,SSW,5.8,-,N/A,Fog-Rain,Light Rain,210,2013-01-26 00:53:00
4:58 PM,35.6,35.6,100,30.00,0.5,South,5.8,-,0.02,Fog,Fog,190,2013-01-26 00:58:00
5:03 PM,35.6,35.6,100,29.93,0.8,South,5.8,-,N/A,Rain,Light Rain,180,2013-01-26 01:03:00
5:08 PM,35.6,35.6,100,29.93,1.2,South,5.8,-,N/A,Rain,Light Rain,180,2013-01-26 01:08:00
5:13 PM,35.6,35.6,100,29.93,1.5,South,5.8,-,N/A,Rain,Light Rain,180,2013-01-26 01:13:00
5:23 PM,35.6,35.6,100,29.93,1.8,South,4.6,-,N/A,Rain,Light Rain,180,2013-01-26 01:23:00
5:33 PM,35.6,35.6,100,29.92,1.5,South,4.6,-,N/A,Rain,Light Rain,170,2013-01-26 01:33:00
5:38 PM,35.6,35.6,100,29.92,1.8,South,4.6,-,N/A,Rain,Light Rain,170,2013-01-26 01:38:00
5:43 PM,35.6,35.6,100,29.92,1.2,SE,4.6,-,N/A,Rain,Light Rain,140,2013-01-26 01:43:00
5:53 PM,35.6,35.6,100,29.92,1.5,SE,5.8,-,N/A,Rain,Light Rain,140,2013-01-26 01:53:00
5:58 PM,34.9,34.9,100,29.99,1.8,SSE,4.6,-,0.06,Rain,Light Rain,160,2013-01-26 01:58:00
6:03 PM,35.6,35.6,100,29.92,2.0,SSE,4.6,-,N/A,Rain,Light Rain,160,2013-01-26 02:03:00
6:06 PM,35.6,35.6,100,29.92,2.0,South,4.6,-,N/A,Rain,Light Rain,170,2013-01-26 02:06:00
6:26 PM,35.6,35.6,100,29.92,1.2,South,2.3,-,N/A,Rain,Light Rain,180,2013-01-26 02:26:00
6:31 PM,35.6,35.6,100,29.92,1.2,South,2.3,-,N/A,Rain,Light Rain,190,2013-01-26 02:31:00
6:36 PM,35.6,35.6,100,29.92,1.2,SW,2.3,-,N/A,Rain,Light Rain,230,2013-01-26 02:36:00
6:41 PM,35.6,35.6,100,29.91,1.0,SW,2.3,-,N/A,Rain,Light Rain,230,2013-01-26 02:41:00
6:46 PM,35.6,35.6,100,29.92,1.0,ESE,1.2,-,N/A,Rain,Rain,120,2013-01-26 02:46:00
6:51 PM,35.6,35.6,100,29.92,0.8,Calm,Calm,-,N/A,Rain,Light Rain,0,2013-01-26 02:51:00
6:58 PM,35.6,35.6,100,29.98,0.8,Calm,Calm,-,0.04,Rain,Light Rain,0,2013-01-26 02:58:00
7:03 PM,35.6,35.6,100,29.91,1.0,Calm,Calm,-,N/A,Rain,Light Rain,0,2013-01-26 03:03:00
7:08 PM,35.6,35.6,100,29.91,1.0,Calm,Calm,-,N/A,Rain,Light Rain,0,2013-01-26 03:08:00
7:13 PM,35.6,35.6,100,29.91,1.0,Calm,Calm,-,N/A,,Light Drizzle,0,2013-01-26 03:13:00
7:18 PM,35.6,35.6,100,29.91,1.0,Calm,Calm,-,N/A,,Light Drizzle,0,2013-01-26 03:18:00
7:23 PM,35.6,35.6,100,29.91,1.0,Calm,Calm,-,N/A,,Light Drizzle,0,2013-01-26 03:23:00
7:28 PM,35.6,35.6,100,29.91,0.8,Calm,Calm,-,N/A,,Light Drizzle,0,2013-01-26 03:28:00
7:38 PM,35.6,35.6,100,29.91,0.8,Calm,Calm,-,N/A,Rain,Light Rain,0,2013-01-26 03:38:00
7:48 PM,35.6,35.6,100,29.91,0.8,Calm,Calm,-,N/A,Rain,Light Rain,0,2013-01-26 03:48:00
7:53 PM,35.6,35.6,100,29.91,1.0,Calm,Calm,-,N/A,Rain,Light Rain,0,2013-01-26 03:53:00
7:58 PM,35.6,35.6,100,29.97,1.0,Calm,Calm,-,0.02,Rain,Light Rain,0,2013-01-26 03:58:00
8:03 PM,35.6,35.6,100,29.91,1.5,Calm,Calm,-,N/A,,Light Drizzle,0,2013-01-26 04:03:00
8:08 PM,35.6,35.6,100,29.91,1.2,Calm,Calm,-,N/A,Rain,Light Rain,0,2013-01-26 04:08:00
8:13 PM,35.6,35.6,100,29.91,1.0,Calm,Calm,-,N/A,Rain,Light Rain,0,2013-01-26 04:13:00
8:18 PM,35.6,35.6,100,29.90,1.0,Calm,Calm,-,N/A,Rain,Light Rain,0,2013-01-26 04:18:00
8:23 PM,35.6,35.6,100,29.90,1.2,Calm,Calm,-,N/A,Rain,Light Rain,0,2013-01-26 04:23:00
8:28 PM,35.6,35.6,100,29.90,1.5,Calm,Calm,-,N/A,Rain,Light Rain,0,2013-01-26 04:28:00
8:31 PM,35.6,35.6,100,29.90,1.5,ENE,1.2,-,N/A,,Overcast,60,2013-01-26 04:31:00
8:34 PM,33.8,33.8,100,29.90,1.5,ENE,2.3,-,N/A,,Light Drizzle,70,2013-01-26 04:34:00
8:39 PM,33.8,33.8,100,29.90,1.0,East,2.3,-,N/A,,Light Drizzle,80,2013-01-26 04:39:00
8:44 PM,33.8,33.8,100,29.90,0.8,East,3.5,-,N/A,,Light Drizzle,100,2013-01-26 04:44:00
8:49 PM,33.8,33.8,100,29.90,0.8,ESE,4.6,-,N/A,,Mist,120,2013-01-26 04:49:00
8:54 PM,33.8,33.8,100,29.91,0.8,SE,3.5,-,N/A,,Mist,130,2013-01-26 04:54:00
8:58 PM,34.0,34.0,100,29.97,0.8,SSE,3.5,-,0.01,,Mist,150,2013-01-26 04:58:00
8:59 PM,33.8,33.8,100,29.90,0.8,SE,2.3,-,N/A,Rain,Light Rain,130,2013-01-26 04:59:00
9:14 PM,33.8,33.8,100,29.90,0.8,East,2.3,-,N/A,Rain,Light Rain,80,2013-01-26 05:14:00
9:19 PM,33.8,33.8,100,29.89,0.8,ENE,2.3,-,N/A,Rain,Light Rain,70,2013-01-26 05:19:00
9:24 PM,33.8,33.8,100,29.89,0.8,ENE,3.5,-,N/A,Rain,Light Rain,60,2013-01-26 05:24:00
9:29 PM,32.0,32.0,100,29.89,0.8,ENE,3.5,-,N/A,Rain,Light Rain,70,2013-01-26 05:29:00
9:32 PM,32.0,32.0,100,29.89,0.8,ENE,3.5,-,N/A,,Mist,70,2013-01-26 05:32:00
9:37 PM,32.0,32.0,100,29.89,0.8,ENE,4.6,-,N/A,,Mist,70,2013-01-26 05:37:00
9:42 PM,32.0,32.0,100,29.89,0.8,ENE,4.6,-,N/A,,Mist,70,2013-01-26 05:42:00
9:47 PM,32.0,32.0,100,29.88,0.8,East,5.8,-,N/A,,Mist,80,2013-01-26 05:47:00
9:52 PM,32.0,32.0,100,29.89,0.8,ENE,4.6,-,N/A,,Mist,70,2013-01-26 05:52:00
9:58 PM,33.3,33.3,100,29.96,0.8,East,3.5,-,0.00,,Mist,80,2013-01-26 05:58:00
10:03 PM,32.0,32.0,100,29.89,0.8,NE,1.2,-,N/A,,Mist,50,2013-01-26 06:03:00
10:12 PM,32.0,32.0,100,29.89,0.8,East,3.5,-,N/A,Rain,Light Rain,80,2013-01-26 06:12:00
10:17 PM,32.0,32.0,100,29.89,0.5,East,3.5,-,N/A,Fog-Rain,Light Rain,90,2013-01-26 06:17:00
10:22 PM,32.0,32.0,100,29.89,0.5,East,2.3,-,N/A,Fog,Fog,90,2013-01-26 06:22:00
10:27 PM,32.0,32.0,100,29.89,0.5,ESE,1.2,-,N/A,Fog,Fog,110,2013-01-26 06:27:00
10:37 PM,33.8,33.8,100,29.89,0.8,SE,2.3,-,N/A,,Mist,130,2013-01-26 06:37:00
10:42 PM,33.8,33.8,100,29.89,0.5,ESE,3.5,-,N/A,Fog,Fog,120,2013-01-26 06:42:00
10:58 PM,33.8,33.8,100,29.94,0.5,SE,3.5,-,0.00,Fog,Fog,140,2013-01-26 06:58:00
11:17 PM,33.8,33.8,100,29.88,0.5,SSE,3.5,-,N/A,Fog,Fog,150,2013-01-26 07:17:00
11:38 PM,33.8,33.8,100,29.88,0.5,SSE,4.6,-,N/A,Fog,Fog,160,2013-01-26 07:38:00
11:58 PM,34.2,34.2,100,29.94,0.5,South,5.8,-,0.00,Fog,Fog,180,2013-01-26 07:58:00